Race Coverage Navigation

TS # 2 / Brawley, CA  2019

 


TS STATS
TS Distance 57 
Total Distance 145.39 
Miles To Go 2924.89 
TS Climbing 145 
Total Climbing
TS  Elevation
TS  Net Elevation 234 
Map Filename Open Map 
Directions Filename  
Latitude 32.98 
Longitude -115.55 
Google Map  TimeStation Map 


TS Arrival Data
Arr Ord  #/Name Arrival DT TS Dst Avg This TS Avg Overall
 1 R404 - Team Viasat - Carlsbad  06/11/2019 21:30 57  24.08  22.37 
 2 R403 - Team Viasat-Denver  06/11/2019 22:02 57  21.92  20.72 
 3 R200 - EY Legacy Builders 2019  06/11/2019 22:41 57  23.75  19.43 
 4 R401 - San Diego Sports Medicine/Zoca  06/11/2019 22:51 57  18.9  18.64 
 5 R205 - Team OB2  06/11/2019 22:59 57  19.43  18.52 
 6 R400 - HTX Velo Femme  06/11/2019 23:19 57  18.79  17.62 
 7 R402 - SUWOS  06/11/2019 23:20 57  19.54  17.52 
 8 R201 - IN OUR PRIME  06/11/2019 23:36 57  17.45  17.27 
 9 R202 - Laureus Alegra  06/11/2019 23:41 57  17.27  17.07 
 10 R203 - Mike 'n' Jay Giretto con Amici  06/11/2019 23:46 57  17.81  16.87 
 11 R111 - Jennifer Orr  06/11/2019 23:52 57  10.93  16.94 
 12 377 - Christoph Strasser  06/11/2019 23:53 57  20.85  20.1 
 13 279 - Marko Baloh  06/12/2019 0:00 57  20.12  19.74 
 14 609 - Jakob Olsen  06/12/2019 0:10 57  20.48  18.6 
 15 594 - Mauerhofer Thomas  06/12/2019 0:15 57  19.21  18.48 
 16 R51 - Fabio Silvestri  06/12/2019 0:15 57  14.81  16.84 
 17 R124 - Andres Rodriguez  06/12/2019 0:16 57  16.76  16.24 
 18 617 - SOLO.kiwi (Craig Harper)  06/12/2019 0:18 57  18.49  18.02 
 19 623 - Ultra Paka Racing Team (Daniel Polman)  06/12/2019 0:21 57  18.19  17.73 
 20 R121 - Ironmae (Rosecler Costa)  06/12/2019 0:26 57  17.1  15.8 
 21 349 - Mark Pattinson  06/12/2019 0:27 57  19.66  18.48 
 22 612 - Markus K. Brandl  06/12/2019 0:28 57  18.69  17.8 
 23 529 - Isa Pulver  06/12/2019 0:29 57  19.21  17.31 
 24 R209 - Workhorses  06/12/2019 0:29 57  16.93  15.47 
 25 615 - Philipp Amhof  06/12/2019 0:33 57  20.73  17.52 
 26 R122 - Kirk Gentle  06/12/2019 0:36 57  15.83  15.72 
 27 622 - Thomas Odom-Team Kyle Pease Foundation  06/12/2019 0:36 57  18.79  17.24 
 28 R115 - Kym Louie  06/12/2019 0:38 57  15.69  15.52 
 29 288 - Dave Haase  06/12/2019 0:38 57  19.66  18.14 
 30 621 - Themsen Ultracycling (Jacob Themsen)  06/12/2019 0:44 57  17.27  17 
 31 R106 - Damaceleste.com (Valentina Tanzi)  06/12/2019 0:47 57  16.06  15.36 
 32 442 - Joe Barr  06/12/2019 0:52 57  15.41  17.41 
 33 603 - Alan Bradley  06/12/2019 1:00 57  18.59  16.87 
 34 R104 - Team everve Christian (Christian Beichel)  06/12/2019 1:02 57  17.63  15.28 
 35 604 - Chieko Ozawa  06/12/2019 1:03 57  18.29  16.15 
 36 R103 - Chris Davies  06/12/2019 1:06 57  16.29  15.2 
 37 559 - Team Martin RAAM 2019 (Martin Bergmeister)  06/12/2019 1:09 57  18.49  16.68 
 38 R108 - Eric C Pearce  06/12/2019 1:09 57  14.87  15.04 
 39 R207 - We Might Make It!  06/12/2019 1:09 57  15.91  14.47 
 40 416 - Leah Goldstein  06/12/2019 1:10 57  17.19  16.04 
 41 161 - Seana Hogan  06/12/2019 1:14 57  18  15.98 
 42 R120 - Team Next Step (Peter Pedersen)  06/12/2019 1:19 57  13.9  14.61 
 43 R116 - Philippe May  06/12/2019 1:20 57  14.74  14.64 
 44 568 - Alexandra Meixner  06/12/2019 1:21 57  19.32  15.66 
 45 R110 - James Golding  06/12/2019 1:24 57  15.62  14.64 
 46 R105 - 2nd Chance Racing (Craig Johnson)  06/12/2019 1:24 57  14.68  14.69 
 47 329 - Peter Oyler  06/12/2019 1:30 57  16.85  16.34 
 48 620 - Team Jefferson (Allan Jefferson)  06/12/2019 1:36 57  14.07  15.47 
 49 R119 - Team BlueLine (Martha Hall)  06/12/2019 1:39 57  17.36  13.98 
 50 608 - Elin Starup  06/12/2019 1:40 57  16.13  15.07 
 51 399 - Valerio Zamboni  06/12/2019 1:41 57  17.01  15.95 
 52 618 - GREGORY ROBINSON  06/12/2019 1:42 57  15  15.33 
 53 607 - Sabine Bird (Team Bean)  06/12/2019 1:44 57  15.48  14.99 
 54 367 - Daniela Genovesi  06/12/2019 1:48 57  12.76  15.01 
 55 539 - Kari Rouvinen  06/12/2019 1:51 57  16.93  15.47 
 56 611 - Marcelo Soares " MIXIRICA "  06/12/2019 2:02 57  18.29  14.96 
 57 R114 - Krishna Prakash  06/12/2019 2:04 57  16.06  13.65 
 58 R84 - James Jason Ingels  06/12/2019 2:07 57  14.68  13.82 
 59 527 - TALABARDON (Herve Talabardon)  06/12/2019 2:21 57  15.13  14.71 
 60 411 - Geoff Brunner  06/12/2019 2:27 57  18.49  14.69 
 61 610 - Kabir Rachure  06/12/2019 2:28 57  14.19  14.35 
 62 510 - John C. Tarlton  06/12/2019 2:30 57  14.37  14.51 
 63 R113 - Kerry Dragon  06/12/2019 2:42 57  13.36  12.9 
 64 R112 - John Hoopingarner  06/12/2019 2:53 57  15  12.72 
 65 R117 - ROGIE (Roger Foote)  06/12/2019 2:56 57  12.39  12.59 
 66 563 - Team Nico Ultracycling - In Fight against Cancer   06/12/2019 3:01 57  15.41  13.72 
 67 605 - Christian Echavarria  06/12/2019 3:04 57  14.81  13.59 
 68 614 - Per Nielsen  06/12/2019 3:05 57  12.57  13.44 
 69 424 - Team i RON man Veterans supporting Veterans  06/12/2019 3:18 57  15.48  13.5 
 70 R102 - Build-A-Bike (Adam Kidd)  06/12/2019 3:29 57  13.9  12.18 
 71 R87 - Spoke Life Cycles / TRD (Lucas Spencer)  06/12/2019 4:01 57  10.65  11.69 
 72 R101 - Bobby Klatt  06/12/2019 4:39 57  11.36  11.11 
 73 491 - BOURREAU JACQUES  06/12/2019 5:06 57  9.45  11.54 
 74 T401 - Data Techniques powered by Networks Centre  06/15/2019 21:42 57  22.8  22.31 
 75 T800 - Backstedt Racing Project 14  06/15/2019 21:56 57  23.11  22.54 
 76 T411 - team alpha - tischlerei groemmer  06/15/2019 21:57 57  22.21  22.03 
 77 T404 - Gentlemen of speed  06/15/2019 22:02 57  21.38  21.38 
 78 T201 - EAT WELL  06/15/2019 22:06 57  20.73  20.53 
 79 T200 - AIR RELAX GoPro TEAM BRASIL  06/15/2019 22:33 57  21.11  19.26 
 80 T412 - Team Aspect  06/15/2019 22:33 57  21.38  20.24 
 81 T202 - Integra Medical - BAA Racing  06/15/2019 22:44 57  19.66  18.88 
 82 T407 - Julian Becker   06/15/2019 22:49 57  17.19  19.3 
 83 T403 - EKJ Denmark  06/15/2019 22:54 57  19.11  18.92 
 84 T206 - Project Linear Acceleration  06/15/2019 22:55 57  19.11  18.6 
 85 T408 - Radeln-fuer-Kinder (Cycling-for-Kids)  06/15/2019 22:56 57  18.69  19.05 
 86 T400 - Cantastic4  06/15/2019 22:59 57  21.11  18.6 
 87 T807 - Team ZOE International  06/15/2019 23:05 57  19.66  19.43 
 88 T805 - Team Oceanside  06/15/2019 23:06 57  19.66  19.3 
 89 T416 - Team Rotary Raams Polio  06/15/2019 23:14 57  18.59  18.64 
 90 T418 - The Opportunists  06/15/2019 23:17 57  21.11  18.6 
 91 T207 - Team Life Time  06/15/2019 23:21 57  16.13  17.66 
 92 T406 - Operation Walk Midwest  06/15/2019 23:22 57  18.39  17.95 
 93 T804 - Team FSHD Skyland Trail  06/15/2019 23:22 57  17.81  18.6 
 94 T802 - Scorchers  06/15/2019 23:22 57  18.49  18.52 
 95 T808 - Antonia's Friends 2019  06/15/2019 23:30 57  18.49  18.44 
 96 T204 - Lucan CRC  06/15/2019 23:33 57  16.36  17.14 
 97 T405 - High Rollers  06/15/2019 23:44 57  16.36  17.14 
 98 T415 - TEAM FIRE VELO 935  06/15/2019 23:44 57  17.91  17.48 
 99 T205 - Prevent Breast Cancer powered by Endomag  06/15/2019 23:47 57  15.98  16.71 
 100 T803 - Team EndoPark  06/15/2019 23:48 57  23.92  17.59 
 101 T402 - EA/WFP RAAM Team  06/15/2019 23:53 57  20.12  16.74 
 102 T413 - TEAM BRASIL - SKIPPER  06/15/2019 23:54 57  17.01  17.07 
 103 T410 - Soap-Aid  06/15/2019 23:57 57  15.83  16.87 
 104 T414 - Brazil Nuts  06/16/2019 0:12 57  17.01  16.52 
 105 T417 - Team4RAAM 2019 powered by TGW Living Logistics  06/16/2019 0:14 57  16.13  16.55 
 106 T203 - JPsDuo  06/16/2019 0:17 57  16.44  15.75 
 107 T208 - Team Machine  06/16/2019 0:18 57  14.93  15.86 
 108 T801 - Mind Over Matter  06/16/2019 0:24 57  18.69  16.34 
 109 T806 - Team SuperMarrow  06/16/2019 0:30 57  15.98  16.31 
 110 T210 - Bike Wine Team  06/16/2019 1:01 57  16.76  14.74 
 111 T409 - Serpentine Golden Girls  06/16/2019 1:15 57  16.21  14.64